Location: Southlake
(32.9412°N, 97.1342°W)
Time: 09:10:18
(UTC+00:00)

ISS - Visible Passes

Search period start: 28 November 2023 00:00
Search period end: 08 December 2023 00:00
Orbit: 416 x 418 km, 51.6° (Epoch: 28 November)

Date Brightness Start Highest point End Pass type
(mag) Time Alt. Az. Time Alt. Az. Time Alt. Az.
03 Dec -1.7 00:18:29 10° N 00:20:05 13° NNE 00:20:05 13° NNE visible
04 Dec -2.2 01:05:24 10° NW 01:07:11 28° NNW 01:07:11 28° NNW visible
05 Dec -2.9 00:17:05 10° NNW 00:20:06 31° NE 00:21:37 21° E visible
05 Dec -0.3 01:54:15 10° W 01:54:36 12° W 01:54:36 12° W visible
06 Dec -2.3 01:05:05 10° WNW 01:08:11 36° SW 01:09:28 25° S visible
07 Dec -3.6 00:16:16 10° NW 00:19:36 77° SW 00:22:56 10° SE visible
